Regional Weather Roundup
Issued by NWS

Home | Current Version | Previous Version | Text Only | Print | Product List | Glossary Off
Versions: 1 2 3 4 5 6 7 8 9 10 11 12 13 14 15 16 17 18 19 20 21 22 23 24 25 26 27 28 29 30 31 32 33 34 35 36 37 38 39 40 41 42 43 44 45 46 47 48 49 50

000
ASUS43 KFSD 241510
RWRSD

WEATHER ROUNDUP FOR SOUTH DAKOTA
NATIONAL WEATHER SERVICE SIOUX FALLS SD
900 AM CST MON NOV 24 2014

NOTE: "FAIR" INDICATES FEW OR NO CLOUDS BELOW 12,000 FEET WITH NO
SIGNIFICANT WEATHER AND/OR OBSTRUCTIONS TO VISIBILITY.


SDZ001>005-009-010-012>017-241600-
NORTHWEST AND NORTH CENTRAL SOUTH DAKOTA

CITY           SKY/WX    TMP DP  RH WIND       PRES   REMARKS
BUFFALO          N/A     23  16  74 NW16      29.76R WCI  10
FAITH            N/A     17  12  80 N20       29.82R WCI   1
MOBRIDGE       CLEAR     18  12  77 NW20      29.79R WCI   2
$$

SDZ012>016-024>037-041>051-057-063-072>074-241600-
SOUTHWEST AND SOUTH CENTRAL SOUTH DAKOTA

CITY           SKY/WX    TMP DP  RH WIND       PRES   REMARKS
RAPID CTY ARPT CLOUDY    22  18  85 SE5       29.82R WCI  16
PIERRE         CLEAR     20  13  74 NW23      29.81R WCI   3
CUSTER         CLOUDY    26  18  71 CALM      29.75R
ELLSWORTH AFB  MOCLDY    22  19  87 SE5       29.82  WCI  16
PHILIP         CLEAR    N/A N/A N/A N6        29.85R
PINE RIDGE     PTCLDY    25  19  78 NW5       29.82R WCI  19
SPEARFISH      LGT SNOW  32  28  86 NW12G17   29.82R WCI  23
WINNER         FAIR      22  15  75 NW21G28   29.80R WCI   6
$$

SDZ004>011-016>023-039-040-241600-
NORTHEAST SOUTH DAKOTA

CITY           SKY/WX    TMP DP  RH WIND       PRES   REMARKS
ABERDEEN       CLEAR     16   7  67 N20G28    29.76R WCI  -1
WATERTOWN      LGT SNOW  14   8  77 N28G36    29.63R WCI  -6
SISSETON         N/A     12   6  77 N23G33    29.66R WCI  -7
$$

SDZ017-020-022-023-036>040-048>070-241600-
SOUTHEAST SOUTH DAKOTA

CITY           SKY/WX    TMP DP  RH WIND       PRES   REMARKS
SIOUX FALLS    FLURRIES  19  12  74 NW21G31   29.64R WCI   3
HURON          MIX PCPN  18  11  74 NW23G37   29.73R WCI   0
CHAMBERLAIN    CLOUDY    20  14  78 NW17G26   29.79R WCI   5
MITCHELL       CLOUDY    21  13  71 NW29G37   29.75R WCI   3
YANKTON        CLOUDY   N/A N/A N/A NW29G37   29.71R
$$

ABBREVIATIONS USED IN REMARKS
   TC - TEMPERATURE IN CELSIUS
  WCI - WIND CHILL INDEX
   HX - HEAT INDEX
  VSB - VISIBILITY



USA.gov is the U.S. government's official web portal to all federal, state and local government web resources and services.